User: anonymous   Login
Location: Unspecified
(0.0000°N, 0.0000°E)
Time: 21:52:32
(UTC+00:00)
Language:

OPTUS D2 - Orbit

View from above orbital plane
View from above orbital plane
View from above satellite
View from above satellite

Ground track
Ground track

The orbit data is extracted from the following two-line orbital elements,

1 32252U 07044A   19079.81966465 -.00000209  00000-0  00000+0 0  9991
2 32252   0.0246 266.0198 0003800  97.4476 261.6370  1.00270096 41913
Epoch (UTC): 20 March 2019 19:40:19
Eccentricity: 0.0003800
inclination: 0.0246°
perigee height: 35770 km
apogee height: 35803 km
right ascension of ascending node: 266.0198°
argument of perigee: 97.4476°
revolutions per day: 1.00270096
mean anomaly at epoch: 261.6370°
orbit number at epoch: 4191

The dashed part of the orbit path shows where the satellite is in the earth's shadow,  

DLR